Change the Weather History Date:

Thursday, May 16, 2013

  Actual Average Record
Temperature  
Mean Temperature 82 °F -  
Max Temperature 89 °F 89 °F 93 °F (2006)
Min Temperature 75 °F 77 °F 73 °F (1998)
Cooling Degree Days 17    
Growing Degree Days 32 (Base 50)    
Moisture  
Dew Point 72 °F    
Average Humidity 67    
Maximum Humidity 89    
Minimum Humidity 42    
Precipitation  
Precipitation 0.00 in 0.24 in - ()
Sea Level Pressure  
Sea Level Pressure 29.94 in    
Wind  
Wind Speed 5 mph ()    
Max Wind Speed 10 mph    
Max Gust Speed -    
Visibility 8.9 miles    
Events      
Averages and records for this station are not official NWS values.
T = Trace of Precipitation, MM = Missing Value Source: Averaged Metar Reports

Daily Weather History Graph

Daily Weather History Graph

Search for Another Location

Airport or City:

Trip Planner

Search our weather history database for the weather conditions in past years. The results will help you decide how hot, cold, wet, or windy it might be!

Date:

Astronomy

May. 16, 2013 Rise Set
Actual Time 5:20 AM CST 6:18 PM CST
Civil Twilight 4:57 AM CST 6:42 PM CST
Nautical Twilight 4:29 AM CST 7:09 PM CST
Astronomical Twilight 4:01 AM CST 7:37 PM CST
Moon 10:38 AM CST (5/16) 11:32 PM CST (5/16)
Length of Visible Light 13h 44m
Length of Day
12h 58m
Waxing Crescent, 36% of the Moon is Illuminated
May 16
Waxing Crescent
May 17
First Quarter
May 24
Full
May 31
Last Quarter
Jun 8
New

Hourly Weather History & Observations

Time (CST) Temp. Heat Index Dew Point Humidity Pressure Visibility Wind Dir Wind Speed Gust Speed Precip Events Conditions
12:00 AM 77 °F - 73 °F 83% 29.98 in 12 mi SE 3.5 mph - -   Scattered Clouds
3:00 AM 77 °F - 73 °F 83% 29.93 in 12 mi ESE 2.3 mph - -   Scattered Clouds
5:00 AM 75.2 °F - 71.6 °F 89% 29.92 in 6.2 mi ESE 3.5 mph - N/A   Scattered Clouds
6:00 AM 76 °F - 72 °F 86% 29.95 in 12 mi ESE 2.3 mph - -   Mostly Cloudy
6:00 AM 77.0 °F - 73.4 °F 89% 29.95 in 6.2 mi ESE 2.3 mph - N/A   Mostly Cloudy
7:00 AM 80.6 °F 85.4 °F 73.4 °F 79% 29.95 in 6.2 mi SE 3.5 mph - N/A   Scattered Clouds
8:00 AM 82.4 °F 88.2 °F 73.4 °F 74% 29.95 in 6.2 mi ESE 6.9 mph - N/A   Mostly Cloudy
9:00 AM 84 °F - 71 °F 57% 29.99 in 16 mi ESE 6.9 mph - -   Mostly Cloudy
9:00 AM 84.2 °F 89.6 °F 71.6 °F 66% 29.98 in 6.2 mi ESE 6.9 mph - N/A   Mostly Cloudy
10:00 AM 86.0 °F 91.8 °F 71.6 °F 62% 29.98 in 6.2 mi SSE 6.9 mph - N/A   Scattered Clouds
11:00 AM 87.8 °F 92.6 °F 69.8 °F 55% 29.97 in 6.2 mi East 9.2 mph - N/A   Scattered Clouds
12:00 PM 86 °F - 73 °F 56% 29.96 in 14 mi East 9.2 mph - -   Partly Cloudy
12:00 PM 86.0 °F 93.4 °F 73.4 °F 66% 29.95 in 6.2 mi East 9.2 mph - N/A   Scattered Clouds
1:00 PM 87.8 °F 93.8 °F 71.6 °F 58% 29.93 in 6.2 mi SE 8.1 mph - N/A   Scattered Clouds
2:00 PM 87.8 °F 92.6 °F 69.8 °F 55% 29.91 in 6.2 mi SE 8.1 mph - N/A   Scattered Clouds
3:00 PM 87 °F - 67 °F 42% 29.91 in 14 mi East 10.4 mph - -   Clear
3:00 PM 87.8 °F 91.4 °F 68.0 °F 52% 29.90 in - East 10.4 mph - N/A   Clear
4:00 PM 87.8 °F 92.6 °F 69.8 °F 55% 29.89 in - SE 6.9 mph - N/A   Clear
5:00 PM 86.0 °F 91.8 °F 71.6 °F 62% 29.89 in 6.2 mi East 9.2 mph - N/A   Mostly Cloudy
6:00 PM 83 °F - 73 °F 65% 29.91 in 12 mi East 8.1 mph - -   Scattered Clouds
6:00 PM 82.4 °F 88.2 °F 73.4 °F 74% 29.90 in 6.2 mi East 8.1 mph - N/A   Mostly Cloudy
9:00 PM 80 °F - 74 °F 77% 29.95 in 12 mi ESE 4.6 mph - -   Partly Cloudy